Location: Oberkirch
(48.5323°N, 8.0787°E)
Time: 21:49:37
(UTC+00:00)

Tiros 1 - Pass Details

Date: 23 February 2026
Orbit: 618 x 649 km, 48.4° (Epoch: 9 March)

Event Time Altitude Azimuth Distance (km) Brightness Sun altitude
Rises 08:27:36 0° 264° (W) 2,916 10.1 17.8°
Reaches altitude 10° 08:29:56 10° 264° (W) 2,004 9.3 18.1°
Maximum altitude 08:34:33 88° 180° (S) 630 7.5 18.7°
Drops below altitude 10° 08:39:08 10° 87° (E) 1,988 10.5 19.3°
Sets 08:41:26 0° 87° (E) 2,891 11.2 19.6°
